Time,TemperatureF,DewpointF,PressureIn,WindDirection,WindDirectionDegrees,WindSpeedMPH,WindSpeedGustMPH,Humidity,HourlyPrecipIn,Conditions,Clouds,dailyrainin,SoftwareType,DateUTC
2013-04-02 00:05:00,47.2,46.0,30.12,West,267,0.0,0.0,95,0.01,,,0.00,weatherlink.com 1.10,2013-04-02 07:05:00,
2013-04-02 00:20:00,47.6,46.0,30.13,West,267,0.0,0.0,95,0.01,,,0.00,weatherlink.com 1.10,2013-04-02 07:20:00,
2013-04-02 00:35:00,47.4,46.0,30.13,West,267,0.0,0.0,95,0.00,,,0.00,weatherlink.com 1.10,2013-04-02 07:35:00,
2013-04-02 00:50:00,47.1,46.0,30.13,West,272,0.0,2.0,95,0.00,,,0.00,weatherlink.com 1.10,2013-04-02 07:50:00,
2013-04-02 01:05:00,46.7,45.0,30.13,West,272,0.0,0.0,95,0.00,,,0.00,weatherlink.com 1.10,2013-04-02 08:05:00,
2013-04-02 01:20:00,46.8,46.0,30.14,West,272,0.0,0.0,95,0.00,,,0.00,weatherlink.com 1.10,2013-04-02 08:20:00,
2013-04-02 01:35:00,46.0,45.0,30.14,West,273,0.0,3.0,95,0.00,,,0.00,weatherlink.com 1.10,2013-04-02 08:35:00,
2013-04-02 01:50:00,45.4,44.0,30.14,WNW,283,0.0,2.0,95,0.00,,,0.00,weatherlink.com 1.10,2013-04-02 08:50:00,
2013-04-02 02:05:00,45.4,44.0,30.14,WNW,283,0.0,0.0,95,0.00,,,0.00,weatherlink.com 1.10,2013-04-02 09:05:00,
2013-04-02 02:20:00,45.3,44.0,30.14,WNW,283,0.0,0.0,96,0.00,,,0.00,weatherlink.com 1.10,2013-04-02 09:20:00,
2013-04-02 02:35:00,45.4,44.0,30.13,WNW,283,0.0,0.0,96,0.00,,,0.00,weatherlink.com 1.10,2013-04-02 09:35:00,
2013-04-02 02:50:00,45.2,44.0,30.14,WNW,283,0.0,3.0,95,0.00,,,0.00,weatherlink.com 1.10,2013-04-02 09:50:00,
2013-04-02 03:05:00,44.9,44.0,30.13,WNW,283,0.0,0.0,96,0.00,,,0.00,weatherlink.com 1.10,2013-04-02 10:05:00,
2013-04-02 03:20:00,44.8,44.0,30.13,WNW,283,0.0,0.0,96,0.00,,,0.00,weatherlink.com 1.10,2013-04-02 10:20:00,
2013-04-02 03:35:00,44.7,44.0,30.12,WNW,283,0.0,1.0,96,0.00,,,0.00,weatherlink.com 1.10,2013-04-02 10:35:00,
2013-04-02 03:50:00,44.6,44.0,30.12,WNW,283,0.0,0.0,96,0.00,,,0.00,weatherlink.com 1.10,2013-04-02 10:50:00,
2013-04-02 04:05:00,45.0,44.0,30.12,WNW,283,0.0,0.0,96,0.00,,,0.00,weatherlink.com 1.10,2013-04-02 11:05:00,
2013-04-02 04:20:00,44.8,44.0,30.12,WNW,284,2.0,4.0,96,0.00,,,0.00,weatherlink.com 1.10,2013-04-02 11:20:00,
2013-04-02 04:35:00,44.2,43.0,30.12,WNW,290,0.0,2.0,96,0.00,,,0.00,weatherlink.com 1.10,2013-04-02 11:35:00,
2013-04-02 04:50:00,44.4,43.0,30.12,WNW,290,0.0,2.0,96,0.00,,,0.00,weatherlink.com 1.10,2013-04-02 11:50:00,
2013-04-02 05:05:00,44.3,43.0,30.12,WNW,290,0.0,0.0,96,0.01,,,0.01,weatherlink.com 1.10,2013-04-02 12:05:00,
2013-04-02 05:20:00,44.7,44.0,30.12,WNW,290,0.0,2.0,96,0.01,,,0.01,weatherlink.com 1.10,2013-04-02 12:20:00,
2013-04-02 05:35:00,44.9,44.0,30.12,WNW,290,0.0,0.0,96,0.01,,,0.01,weatherlink.com 1.10,2013-04-02 12:35:00,
2013-04-02 05:50:00,45.0,44.0,30.12,WNW,290,0.0,0.0,96,0.01,,,0.01,weatherlink.com 1.10,2013-04-02 12:50:00,
2013-04-02 06:05:00,45.3,44.0,30.13,WNW,290,0.0,0.0,96,0.00,,,0.01,weatherlink.com 1.10,2013-04-02 13:05:00,
2013-04-02 06:20:00,45.6,45.0,30.13,WNW,290,0.0,0.0,96,0.00,,,0.01,weatherlink.com 1.10,2013-04-02 13:20:00,
2013-04-02 06:35:00,45.4,44.0,30.13,WNW,290,0.0,1.0,96,0.00,,,0.01,weatherlink.com 1.10,2013-04-02 13:35:00,
2013-04-02 06:50:00,45.4,44.0,30.13,WNW,290,0.0,0.0,96,0.00,,,0.01,weatherlink.com 1.10,2013-04-02 13:50:00,
2013-04-02 07:05:00,45.8,45.0,30.14,WNW,290,0.0,2.0,96,0.00,,,0.01,weatherlink.com 1.10,2013-04-02 14:05:00,
2013-04-02 07:20:00,45.9,45.0,30.14,WNW,290,0.0,0.0,96,0.00,,,0.01,weatherlink.com 1.10,2013-04-02 14:20:00,
2013-04-02 07:35:00,46.2,45.0,30.14,WNW,290,0.0,1.0,96,0.00,,,0.01,weatherlink.com 1.10,2013-04-02 14:35:00,
2013-04-02 07:50:00,46.7,46.0,30.14,WNW,290,0.0,0.0,96,0.00,,,0.01,weatherlink.com 1.10,2013-04-02 14:50:00,
2013-04-02 08:05:00,47.1,46.0,30.14,WNW,290,0.0,1.0,96,0.00,,,0.01,weatherlink.com 1.10,2013-04-02 15:05:00,
2013-04-02 08:20:00,47.2,46.0,30.15,WNW,290,0.0,0.0,96,0.00,,,0.01,weatherlink.com 1.10,2013-04-02 15:20:00,
2013-04-02 08:35:00,47.5,47.0,30.15,WNW,290,0.0,0.0,96,0.00,,,0.01,weatherlink.com 1.10,2013-04-02 15:35:00,
2013-04-02 08:51:00,47.6,47.0,30.15,WNW,293,0.0,0.0,96,0.00,,,0.01,weatherlink.com 1.10,2013-04-02 15:51:00,
2013-04-02 09:05:00,47.9,47.0,30.15,WNW,293,0.0,0.0,96,0.00,,,0.01,weatherlink.com 1.10,2013-04-02 16:05:00,
2013-04-02 09:20:00,47.9,47.0,30.15,WNW,293,0.0,0.0,96,0.00,,,0.01,weatherlink.com 1.10,2013-04-02 16:20:00,
2013-04-02 09:51:00,48.0,47.0,30.15,WNW,289,0.0,2.0,96,0.00,,,0.01,weatherlink.com 1.10,2013-04-02 16:51:00,
2013-04-02 10:06:00,48.7,48.0,30.15,West,264,0.0,2.0,96,0.00,,,0.01,weatherlink.com 1.10,2013-04-02 17:06:00,
2013-04-02 10:21:00,49.0,48.0,30.15,West,273,0.0,1.0,96,0.00,,,0.01,weatherlink.com 1.10,2013-04-02 17:21:00,
2013-04-02 10:36:00,49.8,49.0,30.16,WNW,289,0.0,2.0,96,0.00,,,0.01,weatherlink.com 1.10,2013-04-02 17:36:00,
2013-04-02 12:06:00,58.8,55.0,30.15,SSE,159,1.0,4.0,88,0.01,,,0.02,weatherlink.com 1.10,2013-04-02 19:06:00,
2013-04-02 12:21:00,60.3,56.0,30.14,SSE,155,0.0,4.0,85,0.01,,,0.02,weatherlink.com 1.10,2013-04-02 19:21:00,
2013-04-02 12:36:00,61.8,56.0,30.13,SW,223,2.0,6.0,82,0.00,,,0.02,weatherlink.com 1.10,2013-04-02 19:36:00,
2013-04-02 12:51:00,62.3,57.0,30.13,SW,224,0.0,5.0,82,0.00,,,0.02,weatherlink.com 1.10,2013-04-02 19:51:00,
2013-04-02 13:06:00,63.1,57.0,30.12,West,263,1.0,5.0,80,0.00,,,0.02,weatherlink.com 1.10,2013-04-02 20:06:00,
2013-04-02 13:21:00,63.2,57.0,30.12,WSW,244,0.0,8.0,80,0.00,,,0.02,weatherlink.com 1.10,2013-04-02 20:21:00,
2013-04-02 13:51:00,65.9,58.0,30.11,South,170,0.0,4.0,76,0.00,,,0.02,weatherlink.com 1.10,2013-04-02 20:51:00,
2013-04-02 18:37:00,63.8,51.0,30.05,West,267,0.0,5.0,63,0.00,,,0.03,weatherlink.com 1.10,2013-04-03 01:37:00,
2013-04-02 18:52:00,-999.0,-99.9,30.05,North,-999,-999.0,-999.0,-999,0.00,,,0.03,weatherlink.com 1.10,2013-04-03 01:52:00,
2013-04-02 19:07:00,60.7,52.0,30.05,South,187,0.0,2.0,74,0.01,,,0.04,weatherlink.com 1.10,2013-04-03 02:07:00,
2013-04-02 19:37:00,55.4,50.0,30.06,SSW,196,0.0,1.0,82,0.01,,,0.04,weatherlink.com 1.10,2013-04-03 02:37:00,
2013-04-02 19:52:00,53.6,49.0,30.07,South,182,0.0,2.0,85,0.01,,,0.04,weatherlink.com 1.10,2013-04-03 02:52:00,
2013-04-02 20:07:00,52.0,49.0,30.07,South,175,1.0,2.0,88,0.00,,,0.04,weatherlink.com 1.10,2013-04-03 03:07:00,
2013-04-02 20:22:00,50.6,48.0,30.07,SSE,164,0.0,1.0,90,0.00,,,0.04,weatherlink.com 1.10,2013-04-03 03:22:00,
2013-04-02 20:37:00,49.5,47.0,30.08,SSE,158,0.0,1.0,91,0.00,,,0.04,weatherlink.com 1.10,2013-04-03 03:37:00,
2013-04-02 20:52:00,49.0,47.0,30.09,SSE,155,0.0,2.0,92,0.00,,,0.04,weatherlink.com 1.10,2013-04-03 03:52:00,
2013-04-02 21:07:00,48.6,47.0,30.10,SSE,150,0.0,0.0,93,0.00,,,0.04,weatherlink.com 1.10,2013-04-03 04:07:00,
2013-04-02 21:22:00,48.2,46.0,30.11,SSE,150,0.0,0.0,93,0.00,,,0.04,weatherlink.com 1.10,2013-04-03 04:22:00,
2013-04-02 21:37:00,47.8,46.0,30.12,SSE,150,0.0,0.0,93,0.00,,,0.04,weatherlink.com 1.10,2013-04-03 04:37:00,
2013-04-02 21:52:00,47.4,46.0,30.12,SSE,150,0.0,1.0,94,0.00,,,0.04,weatherlink.com 1.10,2013-04-03 04:52:00,
2013-04-02 22:07:00,47.4,46.0,30.12,SSE,150,0.0,0.0,94,0.00,,,0.04,weatherlink.com 1.10,2013-04-03 05:07:00,
2013-04-02 22:22:00,47.3,46.0,30.12,SSE,150,0.0,1.0,94,0.00,,,0.04,weatherlink.com 1.10,2013-04-03 05:22:00,
2013-04-02 22:37:00,47.2,46.0,30.12,SSE,147,0.0,0.0,94,0.00,,,0.04,weatherlink.com 1.10,2013-04-03 05:37:00,
2013-04-02 22:52:00,47.2,46.0,30.12,SSE,147,0.0,0.0,95,0.00,,,0.04,weatherlink.com 1.10,2013-04-03 05:52:00,
2013-04-02 23:22:00,47.3,46.0,30.11,SSE,147,0.0,0.0,95,0.00,,,0.04,weatherlink.com 1.10,2013-04-03 06:22:00,
2013-04-02 23:37:00,47.4,46.0,30.11,SSE,147,0.0,0.0,95,0.00,,,0.04,weatherlink.com 1.10,2013-04-03 06:37:00,
2013-04-02 23:52:00,47.4,46.0,30.11,NE,45,0.0,2.0,95,0.00,,,0.04,weatherlink.com 1.10,2013-04-03 06:52:00,